CW6902 Weather Reports


Display with metric or nautical units.
time (UTC)temp
F
wind
direction
speed
MPH
gust
MPH
rain 1hr
in
rain 24hr
in
rain mn
in
humidity
%
barometer
mb
20260503212857 82 174 1.0 3.0 0.00 0.00 0.00 35 1018.7
20260503212758 82 175 1.0 3.0 0.00 0.00 0.00 34 1018.7
20260503212657 82 174 0.0 3.0 0.00 0.00 0.00 35 1018.7
20260503212558 82 174 2.0 4.0 0.00 0.00 0.00 36 1018.7
20260503212457 82 174 1.0 4.0 0.00 0.00 0.00 35 1018.7
20260503212358 82 174 0.0 4.0 0.00 0.00 0.00 35 1018.7
20260503212259 82 174 1.0 4.0 0.00 0.00 0.00 34 1018.7
20260503212157 82 174 1.0 4.0 0.00 0.00 0.00 34 1018.9
20260503212057 82 174 1.0 4.0 0.00 0.00 0.00 36 1018.9
20260503211959 82 174 0.0 4.0 0.00 0.00 0.00 35 1018.9
20260503211857 82 174 0.0 4.0 0.00 0.00 0.00 36 1018.9
20260503211758 82 174 1.0 4.0 0.00 0.00 0.00 36 1018.9
20260503211657 82 174 2.0 4.0 0.00 0.00 0.00 36 1018.9
20260503211558 82 173 0.0 4.0 0.00 0.00 0.00 35 1019.0
20260503211457 82 173 1.0 4.0 0.00 0.00 0.00 35 1019.0
20260503211257 81 173 0.0 4.0 0.00 0.00 0.00 36 1019.1
20260503211158 81 173 1.0 4.0 0.00 0.00 0.00 35 1019.0
20260503210959 81 181 0.0 4.0 0.00 0.00 0.00 37 1019.0
20260503210900 81 181 0.0 4.0 0.00 0.00 0.00 35 1019.0
20260503210758 81 181 0.0 6.0 0.00 0.00 0.00 34 1019.0
20260503210657 81 173 2.0 6.0 0.00 0.00 0.00 35 1019.0
20260503210558 81 173 0.0 6.0 0.00 0.00 0.00 35 1019.1
20260503210457 81 173 2.0 6.0 0.00 0.00 0.00 35 1019.1
20260503210359 82 177 1.0 6.0 0.00 0.00 0.00 34 1019.1
20260503210158 82 138 2.0 6.0 0.00 0.00 0.00 34 1019.1
20260503210057 82 104 1.0 6.0 0.00 0.00 0.00 35 1019.1
20260503210000 82 104 2.0 6.0 0.00 0.00 0.00 35 1019.1
20260503205858 82 235 1.0 3.0 0.00 0.00 0.00 35 1019.1
20260503205758 82 235 0.0 3.0 0.00 0.00 0.00 34 1019.1
20260503205658 82 235 1.0 3.0 0.00 0.00 0.00 36 1019.1
20260503205559 82 235 0.0 3.0 0.00 0.00 0.00 35 1019.1
20260503205458 82 235 1.0 3.0 0.00 0.00 0.00 35 1019.1
20260503205257 82 235 1.0 6.0 0.00 0.00 0.00 34 1019.2
20260503205156 82 235 2.0 6.0 0.00 0.00 0.00 33 1019.2
20260503205057 82 235 2.0 6.0 0.00 0.00 0.00 35 1019.2
20260503205000 82 236 2.0 6.0 0.00 0.00 0.00 34 1019.2
20260503204858 82 236 0.0 6.0 0.00 0.00 0.00 36 1019.3
20260503204757 82 236 2.0 6.0 0.00 0.00 0.00 36 1019.3
20260503204557 82 240 3.0 6.0 0.00 0.00 0.00 36 1019.3
20260503204458 82 214 1.0 7.0 0.00 0.00 0.00 36 1019.3
20260503204156 82 214 1.0 7.0 0.00 0.00 0.00 35 1019.4
20260503204056 82 214 2.0 7.0 0.00 0.00 0.00 36 1019.5
20260503203856 82 214 0.0 7.0 0.00 0.00 0.00 36 1019.5
20260503203758 82 214 2.0 7.0 0.00 0.00 0.00 35 1019.4
20260503203557 82 186 0.0 5.0 0.00 0.00 0.00 35 1019.5
20260503203458 83 187 1.0 5.0 0.00 0.00 0.00 36 1019.5
20260503203358 83 187 3.0 5.0 0.00 0.00 0.00 34 1019.5
20260503203258 83 187 2.0 7.0 0.00 0.00 0.00 35 1019.5
20260503203158 83 192 2.0 7.0 0.00 0.00 0.00 36 1019.5
20260503203058 83 154 2.0 7.0 0.00 0.00 0.00 36 1019.4
20260503202958 83 150 1.0 7.0 0.00 0.00 0.00 36 1019.5
20260503202858 83 150 0.0 7.0 0.00 0.00 0.00 35 1019.5
20260503202759 83 150 2.0 7.0 0.00 0.00 0.00 35 1019.5
20260503202658 83 90 1.0 7.0 0.00 0.00 0.00 35 1019.6
20260503202557 83 90 4.0 7.0 0.00 0.00 0.00 35 1019.6
20260503202458 83 85 3.0 7.0 0.00 0.00 0.00 35 1019.6
20260503202358 83 125 2.0 6.0 0.00 0.00 0.00 35 1019.7
20260503202256 83 130 2.0 6.0 0.00 0.00 0.00 36 1019.7
20260503202058 83 86 0.0 6.0 0.00 0.00 0.00 35 1019.8
20260503202000 83 85 0.0 6.0 0.00 0.00 0.00 36 1019.8
20260503201756 83 47 6.0 6.0 0.00 0.00 0.00 35 1019.8
20260503201658 83 56 1.0 4.0 0.00 0.00 0.00 36 1019.9
20260503201357 83 151 1.0 5.0 0.00 0.00 0.00 37 1019.8
20260503201258 83 152 0.0 5.0 0.00 0.00 0.00 37 1019.8
20260503201158 83 152 0.0 5.0 0.00 0.00 0.00 35 1019.9
20260503201056 83 152 1.0 5.0 0.00 0.00 0.00 35 1019.9
20260503201002 83 152 3.0 5.0 0.00 0.00 0.00 34 1019.9
20260503200858 83 107 0.0 5.0 0.00 0.00 0.00 35 1020.0
20260503200758 83 107 1.0 5.0 0.00 0.00 0.00 35 1020.0
20260503200657 83 107 3.0 5.0 0.00 0.00 0.00 35 1020.0
20260503200556 83 101 2.0 5.0 0.00 0.00 0.00 36 1019.9
20260503200458 83 101 0.0 5.0 0.00 0.00 0.00 37 1020.0
20260503200358 83 101 0.0 5.0 0.00 0.00 0.00 37 1020.0
20260503200257 83 101 2.0 5.0 0.00 0.00 0.00 36 1020.1
20260503200156 83 101 0.0 5.0 0.00 0.00 0.00 35 1020.1
20260503200057 83 101 3.0 5.0 0.00 0.00 0.00 36 1020.2
20260503200004 82 101 0.0 5.0 0.00 0.00 0.00 36 1020.2
20260503195859 82 96 2.0 5.0 0.00 0.00 0.00 37 1020.1
20260503195757 82 96 1.0 5.0 0.00 0.00 0.00 37 1020.1
20260503195656 82 96 0.0 5.0 0.00 0.00 0.00 36 1020.1
20260503195559 82 96 0.0 5.0 0.00 0.00 0.00 36 1020.1
20260503195459 82 96 0.0 5.0 0.00 0.00 0.00 37 1020.1
20260503195359 82 96 0.0 5.0 0.00 0.00 0.00 37 1020.2
20260503195257 82 158 2.0 5.0 0.00 0.00 0.00 36 1020.1
20260503195158 82 130 2.0 5.0 0.00 0.00 0.00 37 1020.2
20260503195058 82 223 0.0 5.0 0.00 0.00 0.00 36 1020.2
20260503195001 82 133 1.0 4.0 0.00 0.00 0.00 37 1020.2
20260503194857 82 133 1.0 4.0 0.00 0.00 0.00 36 1020.3
20260503194757 82 133 0.0 4.0 0.00 0.00 0.00 37 1020.2
20260503194659 82 133 2.0 4.0 0.00 0.00 0.00 37 1020.2
20260503194559 82 133 1.0 4.0 0.00 0.00 0.00 37 1020.2
20260503194457 82 154 2.0 4.0 0.00 0.00 0.00 37 1020.2
20260503194259 82 154 0.0 4.0 0.00 0.00 0.00 38 1020.2
20260503194159 82 156 0.0 4.0 0.00 0.00 0.00 37 1020.3
20260503194057 82 156 1.0 4.0 0.00 0.00 0.00 37 1020.3
20260503193958 82 156 2.0 4.0 0.00 0.00 0.00 36 1020.3
20260503193858 82 200 3.0 3.0 0.00 0.00 0.00 38 1020.3
20260503193657 82 209 0.0 3.0 0.00 0.00 0.00 37 1020.4
20260503193459 82 209 1.0 3.0 0.00 0.00 0.00 37 1020.4
20260503193359 82 208 3.0 3.0 0.00 0.00 0.00 38 1020.4
20260503193257 82 212 1.0 6.0 0.00 0.00 0.00 38 1020.5
20260503193157 82 212 1.0 6.0 0.00 0.00 0.00 38 1020.5
20260503193059 81 212 2.0 6.0 0.00 0.00 0.00 38 1020.5
20260503193000 82 212 1.0 6.0 0.00 0.00 0.00 38 1020.4
20260503192856 82 212 2.0 6.0 0.00 0.00 0.00 37 1020.5
20260503192659 82 212 1.0 6.0 0.00 0.00 0.00 38 1020.5
20260503192457 82 212 3.0 6.0 0.00 0.00 0.00 36 1020.5
20260503192357 82 92 2.0 4.0 0.00 0.00 0.00 37 1020.6
20260503192257 82 92 0.0 4.0 0.00 0.00 0.00 37 1020.6
20260503192057 82 98 2.0 4.0 0.00 0.00 0.00 37 1020.6
20260503191959 82 98 1.0 4.0 0.00 0.00 0.00 37 1020.7
20260503191859 82 98 2.0 4.0 0.00 0.00 0.00 37 1020.7
20260503191800 82 98 1.0 4.0 0.00 0.00 0.00 37 1020.7
20260503191659 82 98 1.0 4.0 0.00 0.00 0.00 37 1020.8
20260503191557 82 98 3.0 4.0 0.00 0.00 0.00 38 1020.9
20260503191459 82 98 2.0 4.0 0.00 0.00 0.00 37 1020.8
20260503191400 82 97 2.0 4.0 0.00 0.00 0.00 37 1020.8
20260503191258 82 84 2.0 7.0 0.00 0.00 0.00 38 1020.8
20260503191158 82 84 2.0 7.0 0.00 0.00 0.00 38 1020.8
20260503191057 82 84 0.0 7.0 0.00 0.00 0.00 38 1020.8
20260503191002 82 84 0.0 7.0 0.00 0.00 0.00 37 1020.8
20260503190857 82 84 0.0 7.0 0.00 0.00 0.00 38 1020.8
20260503190757 82 84 0.0 7.0 0.00 0.00 0.00 37 1020.8
20260503190657 82 84 0.0 7.0 0.00 0.00 0.00 37 1020.9
20260503190358 82 86 6.0 7.0 0.00 0.00 0.00 39 1020.9
20260503190257 82 87 0.0 5.0 0.00 0.00 0.00 38 1021.0
20260503190200 82 87 1.0 5.0 0.00 0.00 0.00 39 1021.0
20260503190059 82 87 0.0 5.0 0.00 0.00 0.00 38 1021.0
20260503185958 82 87 2.0 5.0 0.00 0.00 0.00 38 1021.0
20260503185656 81 119 2.0 4.0 0.00 0.00 0.00 39 1021.1
20260503185557 81 119 1.0 4.0 0.00 0.00 0.00 38 1021.1
20260503185458 81 119 0.0 4.0 0.00 0.00 0.00 38 1021.0
20260503185359 81 119 0.0 4.0 0.00 0.00 0.00 37 1021.0
20260503185258 81 119 2.0 4.0 0.00 0.00 0.00 38 1021.1
20260503185157 81 119 0.0 4.0 0.00 0.00 0.00 38 1021.1
20260503185056 81 119 2.0 4.0 0.00 0.00 0.00 38 1021.1
20260503184856 81 119 0.0 5.0 0.00 0.00 0.00 38 1021.2
20260503184756 81 92 1.0 5.0 0.00 0.00 0.00 38 1021.2
20260503184658 81 92 0.0 5.0 0.00 0.00 0.00 38 1021.2
20260503184558 82 85 2.0 5.0 0.00 0.00 0.00 39 1021.2
20260503184456 82 85 1.0 5.0 0.00 0.00 0.00 39 1021.2
20260503184356 81 85 0.0 5.0 0.00 0.00 0.00 38 1021.2
20260503184256 81 85 0.0 5.0 0.00 0.00 0.00 38 1021.2
20260503184057 81 181 1.0 4.0 0.00 0.00 0.00 39 1021.3
20260503183959 81 181 1.0 4.0 0.00 0.00 0.00 38 1021.2
20260503183855 81 181 2.0 4.0 0.00 0.00 0.00 38 1021.2
20260503183759 82 181 2.0 4.0 0.00 0.00 0.00 39 1021.3
20260503183658 82 180 2.0 4.0 0.00 0.00 0.00 39 1021.3
20260503183557 81 181 0.0 4.0 0.00 0.00 0.00 39 1021.3
20260503183458 81 181 1.0 4.0 0.00 0.00 0.00 40 1021.4
20260503183358 81 181 0.0 4.0 0.00 0.00 0.00 40 1021.4
20260503183258 81 174 0.0 4.0 0.00 0.00 0.00 39 1021.4
20260503183158 81 174 1.0 4.0 0.00 0.00 0.00 40 1021.4
20260503183056 81 180 1.0 4.0 0.00 0.00 0.00 39 1021.4
20260503182959 81 180 2.0 4.0 0.00 0.00 0.00 39 1021.3
20260503182858 81 181 1.0 4.0 0.00 0.00 0.00 41 1021.4
20260503182756 81 181 0.0 4.0 0.00 0.00 0.00 39 1021.5
20260503182656 81 181 0.0 4.0 0.00 0.00 0.00 40 1021.5
20260503182458 81 181 0.0 4.0 0.00 0.00 0.00 39 1021.5
20260503182358 81 181 0.0 4.0 0.00 0.00 0.00 38 1021.5
20260503182256 82 169 0.0 3.0 0.00 0.00 0.00 40 1021.5
20260503182158 82 169 2.0 3.0 0.00 0.00 0.00 40 1021.5
20260503182058 81 168 0.0 4.0 0.00 0.00 0.00 40 1021.5
20260503181958 81 169 2.0 4.0 0.00 0.00 0.00 40 1021.6
20260503181856 81 169 0.0 4.0 0.00 0.00 0.00 40 1021.6
20260503181756 81 168 1.0 4.0 0.00 0.00 0.00 40 1021.5
20260503181556 81 245 2.0 4.0 0.00 0.00 0.00 42 1021.6
20260503181456 81 250 1.0 4.0 0.00 0.00 0.00 41 1021.6
20260503181356 81 250 2.0 4.0 0.00 0.00 0.00 40 1021.6
20260503181258 81 87 1.0 4.0 0.00 0.00 0.00 41 1021.6
20260503181159 81 87 3.0 4.0 0.00 0.00 0.00 40 1021.7
20260503181056 81 87 2.0 4.0 0.00 0.00 0.00 42 1021.7
20260503180858 81 87 1.0 4.0 0.00 0.00 0.00 40 1021.7
20260503180758 81 87 1.0 4.0 0.00 0.00 0.00 40 1021.8
20260503180656 81 87 2.0 4.0 0.00 0.00 0.00 41 1021.8
20260503180557 81 87 1.0 4.0 0.00 0.00 0.00 42 1021.8
20260503180458 81 87 0.0 4.0 0.00 0.00 0.00 41 1021.8
20260503180400 81 87 1.0 4.0 0.00 0.00 0.00 40 1021.8
20260503180256 81 87 0.0 4.0 0.00 0.00 0.00 41 1021.8
20260503180156 81 87 0.0 4.0 0.00 0.00 0.00 42 1021.8
20260503180055 81 87 2.0 4.0 0.00 0.00 0.00 42 1021.9
20260503175758 81 87 1.0 4.0 0.00 0.00 0.00 42 1021.9
20260503175559 81 87 1.0 3.0 0.00 0.00 0.00 42 1021.9
20260503175459 81 87 0.0 3.0 0.00 0.00 0.00 42 1022.0
20260503175357 80 87 1.0 3.0 0.00 0.00 0.00 43 1022.0
20260503175258 80 87 1.0 3.0 0.00 0.00 0.00 43 1022.0
20260503175159 80 87 1.0 4.0 0.00 0.00 0.00 43 1022.1
20260503175059 80 87 1.0 5.0 0.00 0.00 0.00 43 1022.1
20260503174958 80 87 0.0 5.0 0.00 0.00 0.00 43 1022.1
20260503174857 80 87 1.0 5.0 0.00 0.00 0.00 44 1022.1
20260503174759 79 87 1.0 5.0 0.00 0.00 0.00 42 1022.1
20260503174659 79 87 2.0 5.0 0.00 0.00 0.00 42 1022.2
20260503174557 79 87 2.0 5.0 0.00 0.00 0.00 41 1022.2
20260503174157 80 87 5.0 5.0 0.00 0.00 0.00 42 1022.2
20260503174057 80 102 4.0 4.0 0.00 0.00 0.00 42 1022.3
20260503174000 80 166 0.0 3.0 0.00 0.00 0.00 42 1022.3
20260503173757 80 166 1.0 4.0 0.00 0.00 0.00 43 1022.3
20260503173657 80 166 0.0 4.0 0.00 0.00 0.00 44 1022.3
20260503173559 80 166 0.0 4.0 0.00 0.00 0.00 42 1022.4
20260503173459 80 166 2.0 4.0 0.00 0.00 0.00 42 1022.4
20260503173357 80 166 2.0 4.0 0.00 0.00 0.00 44 1022.4
20260503173257 80 166 0.0 4.0 0.00 0.00 0.00 44 1022.4
20260503173001 80 166 3.0 4.0 0.00 0.00 0.00 43 1022.5
20260503172857 80 166 2.0 3.0 0.00 0.00 0.00 42 1022.4
20260503172757 80 166 3.0 3.0 0.00 0.00 0.00 43 1022.5
20260503172659 80 166 1.0 3.0 0.00 0.00 0.00 43 1022.5
20260503172400 80 170 2.0 4.0 0.00 0.00 0.00 44 1022.6
20260503172258 80 170 2.0 6.0 0.00 0.00 0.00 44 1022.6
20260503172057 79 173 2.0 6.0 0.00 0.00 0.00 44 1022.7
20260503171859 79 173 0.0 6.0 0.00 0.00 0.00 43 1022.7
20260503171800 80 173 1.0 6.0 0.00 0.00 0.00 43 1022.7
20260503171557 80 173 0.0 6.0 0.00 0.00 0.00 44 1022.7
20260503171457 80 173 1.0 6.0 0.00 0.00 0.00 43 1022.7
20260503171359 80 123 4.0 5.0 0.00 0.00 0.00 44 1022.7
20260503171257 80 123 2.0 4.0 0.00 0.00 0.00 44 1022.7
20260503171159 80 123 1.0 4.0 0.00 0.00 0.00 46 1022.7
20260503171000 79 123 1.0 4.0 0.00 0.00 0.00 45 1022.7
20260503170857 79 139 1.0 3.0 0.00 0.00 0.00 46 1022.7
20260503170757 79 139 0.0 3.0 0.00 0.00 0.00 45 1022.6
20260503170658 79 139 0.0 3.0 0.00 0.00 0.00 45 1022.7
20260503170559 79 139 1.0 3.0 0.00 0.00 0.00 44 1022.7
20260503170357 79 139 0.0 3.0 0.00 0.00 0.00 45 1022.7
20260503170257 79 139 0.0 3.0 0.00 0.00 0.00 44 1022.7
20260503150858 74 198 0.0 4.0 0.00 0.00 0.00 55 1022.8
20260503150757 74 199 1.0 4.0 0.00 0.00 0.00 55 1022.7
20260503150556 74 202 0.0 4.0 0.00 0.00 0.00 56 1022.7
20260503150458 74 188 2.0 4.0 0.00 0.00 0.00 56 1022.7
20260503150356 74 185 1.0 4.0 0.00 0.00 0.00 57 1022.7
20260503150255 74 185 2.0 4.0 0.00 0.00 0.00 58 1022.7
20260503140257 68 59 0.0 0.0 0.00 0.00 0.00 59 1022.3
20260503140159 68 59 0.0 0.0 0.00 0.00 0.00 59 1022.3
20260503131357 59 59 0.0 0.0 0.00 0.00 0.00 100 1022.2
20260503131258 59 59 0.0 0.0 0.00 0.00 0.00 100 1022.2
20260503131057 58 59 0.0 0.0 0.00 0.00 0.00 100 1022.2
20260503130958 58 59 0.0 0.0 0.00 0.00 0.00 100 1022.1
20260503130858 58 59 0.0 0.0 0.00 0.00 0.00 100 1022.1
20260503130759 58 59 0.0 0.0 0.00 0.00 0.00 100 1022.1
20260503130657 57 59 0.0 0.0 0.00 0.00 0.00 100 1022.2
20260503130557 57 59 0.0 0.0 0.00 0.00 0.00 100 1022.1
20260503130459 57 59 0.0 0.0 0.00 0.00 0.00 100 1022.1
20260503130359 57 59 0.0 0.0 0.00 0.00 0.00 100 1022.1
20260503130257 57 59 0.0 0.0 0.00 0.00 0.00 100 1022.1
20260503110758 0 0.0 0.0 0.00 0.00 0.00 1021.0
20260503110658 0 0.0 0.0 0.00 0.00 0.00 1021.1
20260503110559 0 0.0 0.0 0.00 0.00 0.00 1021.1
20260503110359 0 0.0 0.0 0.00 0.00 0.00 1021.1
20260503110258 0 0.0 0.0 0.00 0.00 0.00 1021.1
20260503110159 0 0.0 0.0 0.00 0.00 0.00 1021.1
20260503100255 0 0.0 0.0 0.00 0.00 0.00 1020.6
20260503100155 0 0.0 0.0 0.00 0.00 0.00 1020.6
20260503090456 0 0.0 0.0 0.00 0.00 0.00 1020.4
20260503090358 0 0.0 0.0 0.00 0.00 0.00 1020.4
20260503081557 0 0.0 0.0 0.00 0.01 0.00 1020.6
20260503081457 0 0.0 0.0 0.00 0.01 0.00 1020.6
20260503081357 0 0.0 0.0 0.00 0.01 0.00 1020.6
20260503081257 0 0.0 0.0 0.00 0.01 0.00 1020.6
20260503081157 0 0.0 0.0 0.00 0.01 0.00 1020.6
20260503081057 0 0.0 0.0 0.00 0.01 0.00 1020.6
20260503080958 0 0.0 0.0 0.00 0.01 0.00 1020.6
20260503080857 0 0.0 0.0 0.00 0.01 0.00 1020.6
20260503080759 0 0.0 0.0 0.00 0.01 0.00 1020.6
20260503080657 0 0.0 0.0 0.00 0.01 0.00 1020.6
20260503080557 0 0.0 0.0 0.00 0.01 0.00 1020.7
20260503080457 0 0.0 0.0 0.00 0.01 0.00 1020.7
20260503080357 0 0.0 0.0 0.00 0.01 0.00 1020.6
20260503080257 0 0.0 0.0 0.00 0.01 0.00 1020.6
20260503080158 0 0.0 0.0 0.00 0.01 0.00 1020.6
20260503072759 0 0.0 0.0 0.00 0.01 0.00 1020.4
20260503072658 0 0.0 0.0 0.00 0.01 0.00 1020.4
20260503072558 0 0.0 0.0 0.00 0.01 0.00 1020.4
20260503072459 0 0.0 0.0 0.00 0.01 0.00 1020.5
20260503072358 0 0.0 0.0 0.00 0.01 0.00 1020.5
20260503072257 0 0.0 0.0 0.00 0.01 0.00 1020.5
20260503072157 0 0.0 0.0 0.00 0.01 0.00 1020.5
20260503072058 0 0.0 0.0 0.00 0.01 0.00 1020.5
20260503071959 0 0.0 0.0 0.00 0.01 0.00 1020.5
20260503071858 0 0.0 0.0 0.00 0.01 0.00 1020.5
20260503071758 0 0.0 0.0 0.00 0.01 0.00 1020.5
20260503071658 0 0.0 0.0 0.00 0.01 0.00 1020.5
20260503071558 0 0.0 0.0 0.00 0.01 0.00 1020.5
20260503071458 0 0.0 0.0 0.00 0.01 0.00 1020.5
20260503071358 0 0.0 0.0 0.00 0.01 0.00 1020.5
20260503071258 0 0.0 0.0 0.00 0.01 0.00 1020.6
20260503071158 0 0.0 0.0 0.00 0.01 0.00 1020.6
20260503071058 0 0.0 0.0 0.00 0.01 0.00 1020.6
20260503070959 0 0.0 0.0 0.00 0.01 0.00 1020.6
20260503070858 0 0.0 0.0 0.00 0.01 0.00 1020.6
20260503070758 0 0.0 0.0 0.00 0.01 0.00 1020.6
20260503070658 0 0.0 0.0 0.00 0.01 0.00 1020.6
20260503070558 0 0.0 0.0 0.00 0.01 0.00 1020.6
20260503070459 0 0.0 0.0 0.00 0.01 0.00 1020.6
20260503070258 0 0.0 0.0 0.00 0.01 0.00 1020.5
20260503070158 0 0.0 0.0 0.00 0.01 0.00 1020.5
20260503060258 0 0.0 0.0 0.00 0.01 0.00 1020.6
20260503060158 0 0.0 0.0 0.00 0.01 0.00 1020.7
20260503054958 0 0.0 0.0 0.00 0.01 0.00 1020.7
20260503054857 0 0.0 0.0 0.00 0.01 0.00 1020.7
20260503054758 0 0.0 0.0 0.00 0.01 0.00 1020.7
20260503054657 0 0.0 0.0 0.00 0.01 0.00 1020.7
20260503054559 0 0.0 0.0 0.00 0.01 0.00 1020.7
20260503054458 0 0.0 0.0 0.00 0.01 0.00 1020.7
20260503054358 0 0.0 0.0 0.00 0.01 0.00 1020.6
20260503054258 0 0.0 0.0 0.00 0.01 0.00 1020.7
20260503054158 0 0.0 0.0 0.00 0.01 0.00 1020.6
20260503054057 0 0.0 0.0 0.00 0.01 0.00 1020.6
20260503053858 0 0.0 0.0 0.00 0.01 0.00 1020.6
20260503053758 0 0.0 0.0 0.00 0.01 0.00 1020.5
20260503053558 0 0.0 0.0 0.00 0.01 0.00 1020.5
20260503053458 0 0.0 0.0 0.00 0.01 0.00 1020.4
20260503053358 0 0.0 0.0 0.00 0.01 0.00 1020.4
20260503053256 0 0.0 0.0 0.00 0.01 0.00 1020.4
20260503053157 0 0.0 0.0 0.00 0.01 0.00 1020.3
20260503053056 0 0.0 0.0 0.00 0.01 0.00 1020.3
20260503052959 0 0.0 0.0 0.00 0.01 0.00 1020.4
20260503052856 0 0.0 0.0 0.00 0.01 0.00 1020.4
20260503052757 0 0.0 0.0 0.00 0.01 0.00 1020.4
20260503052657 0 0.0 0.0 0.00 0.01 0.00 1020.4
20260503052557 0 0.0 0.0 0.00 0.01 0.00 1020.3
20260503052457 0 0.0 0.0 0.00 0.01 0.00 1020.4
20260503052358 0 0.0 0.0 0.00 0.01 0.00 1020.4
20260503052257 0 0.0 0.0 0.00 0.01 0.00 1020.4
20260503052056 0 0.0 0.0 0.00 0.01 0.00 1020.5
20260503052000 0 0.0 0.0 0.00 0.01 0.00 1020.5
20260503051857 0 0.0 0.0 0.00 0.01 0.00 1020.5
20260503051757 0 0.0 0.0 0.00 0.01 0.00 1020.5
20260503051656 0 0.0 0.0 0.00 0.01 0.00 1020.5
20260503051557 0 0.0 0.0 0.00 0.01 0.00 1020.5
20260503051457 0 0.0 0.0 0.00 0.01 0.00 1020.5
20260503051359 0 0.0 0.0 0.00 0.01 0.00 1020.4
20260503051258 0 0.0 0.0 0.00 0.01 0.00 1020.5
20260503051158 0 0.0 0.0 0.00 0.01 0.00 1020.4
20260503051000 0 0.0 0.0 0.00 0.01 0.00 1020.3
20260503050858 0 0.0 0.0 0.00 0.01 0.00 1020.3
20260503050759 0 0.0 0.0 0.00 0.01 0.00 1020.4
20260503050557 0 0.0 0.0 0.00 0.01 0.00 1020.4
20260503050458 0 0.0 0.0 0.00 0.01 0.00 1020.4
20260503050359 0 0.0 0.0 0.00 0.01 0.00 1020.4
20260503050258 0 0.0 0.0 0.00 0.01 0.00 1020.4
20260503050159 0 0.0 0.0 0.00 0.01 0.00 1020.4
20260503050058 0 0.0 0.0 0.00 0.01 0.00 1020.4
20260503045958 0 0.0 0.0 0.00 0.01 0.01 1020.3
20260503045856 0 0.0 0.0 0.00 0.01 0.01 1020.3
20260503045757 0 0.0 0.0 0.00 0.01 0.01 1020.2
20260503045556 0 0.0 0.0 0.00 0.01 0.01 1020.2
20260503045457 0 0.0 0.0 0.00 0.01 0.01 1020.2
20260503045258 0 0.0 0.0 0.00 0.01 0.01 1020.2
20260503045058 0 0.0 0.0 0.00 0.01 0.01 1020.2
20260503045000 0 0.0 0.0 0.00 0.01 0.01 1020.3
20260503044858 0 0.0 0.0 0.00 0.01 0.01 1020.2
20260503044757 0 0.0 0.0 0.00 0.01 0.01 1020.3
20260503044658 0 0.0 0.0 0.00 0.01 0.01 1020.2
20260503044559 0 0.0 0.0 0.00 0.01 0.01 1020.2
20260503044457 0 0.0 0.0 0.00 0.01 0.01 1020.2
20260503044359 0 0.0 0.0 0.00 0.01 0.01 1020.2
20260503044157 0 0.0 0.0 0.00 0.01 0.01 1020.2
20260503044057 0 0.0 0.0 0.00 0.01 0.01 1020.1
20260503044000 0 0.0 0.0 0.00 0.01 0.01 1020.2
20260503043758 0 0.0 0.0 0.00 0.01 0.01 1020.2
20260503043656 0 0.0 0.0 0.00 0.01 0.01 1020.1
20260503043557 0 0.0 0.0 0.00 0.01 0.01 1020.1
20260503043359 0 0.0 0.0 0.00 0.01 0.01 1020.1
20260503043258 0 0.0 0.0 0.00 0.01 0.01 1020.1
20260503043157 0 0.0 0.0 0.00 0.01 0.01 1020.1
20260503043000 0 0.0 0.0 0.00 0.01 0.01 1020.0
20260503042858 0 0.0 0.0 0.00 0.01 0.01 1020.0
20260503042757 0 0.0 0.0 0.00 0.01 0.01 1020.0
20260503042655 0 0.0 0.0 0.00 0.01 0.01 1020.0
20260503042559 0 0.0 0.0 0.00 0.01 0.01 1020.0
20260503042457 0 0.0 0.0 0.00 0.01 0.01 1020.0
20260503042357 0 0.0 0.0 0.00 0.01 0.01 1020.0
20260503042256 0 0.0 0.0 0.00 0.01 0.01 1020.0
20260503042157 0 0.0 0.0 0.00 0.01 0.01 1020.1
20260503041856 0 0.0 0.0 0.00 0.01 0.01 1020.1
20260503041656 0 0.0 0.0 0.00 0.01 0.01 1020.1
20260503041557 0 0.0 0.0 0.00 0.01 0.01 1020.1
20260503041457 0 0.0 0.0 0.00 0.01 0.01 1020.2
20260503041357 0 0.0 0.0 0.00 0.01 0.01 1020.1
20260503041157 0 0.0 0.0 0.00 0.01 0.01 1020.2
20260503041057 0 0.0 0.0 0.00 0.01 0.01 1020.2
20260503040958 0 0.0 0.0 0.00 0.01 0.01 1020.2
20260503040856 0 0.0 0.0 0.00 0.01 0.01 1020.2
20260503040757 0 0.0 0.0 0.00 0.01 0.01 1020.2
20260503040656 0 0.0 0.0 0.00 0.01 0.01 1020.2
20260503040556 0 0.0 0.0 0.00 0.01 0.01 1020.1
20260503040456 0 0.0 0.0 0.00 0.01 0.01 1020.2
20260503040359 0 0.0 0.0 0.00 0.01 0.01 1020.2
20260503040256 0 0.0 0.0 0.00 0.01 0.01 1020.1
20260503040058 0 0.0 0.0 0.00 0.01 0.01 1020.1
20260503040005 0 0.0 0.0 0.00 0.01 0.01 1020.1
20260503035857 0 0.0 0.0 0.00 0.01 0.01 1020.1
20260503035759 0 0.0 0.0 0.00 0.01 0.01 1020.1
20260503035659 0 0.0 0.0 0.00 0.01 0.01 1020.0
20260503035600 0 0.0 0.0 0.00 0.01 0.01 1020.0
20260503035358 0 0.0 0.0 0.00 0.01 0.01 1020.0
20260503035256 0 0.0 0.0 0.00 0.01 0.01 1020.0
20260503035159 0 0.0 0.0 0.00 0.01 0.01 1020.0
20260503035058 0 0.0 0.0 0.00 0.01 0.01 1019.9
20260503034858 0 0.0 0.0 0.00 0.01 0.01 1019.9
20260503034800 0 0.0 0.0 0.00 0.01 0.01 1019.9
20260503034704 0 0.0 0.0 0.00 0.01 0.01 1019.9
20260503034557 0 0.0 0.0 0.00 0.01 0.01 1019.9
20260503034507 0 0.0 0.0 0.00 0.01 0.01 1019.9
20260503034359 0 0.0 0.0 0.00 0.01 0.01 1019.9
20260503034258 0 0.0 0.0 0.00 0.01 0.01 1019.9
20260503034159 0 0.0 0.0 0.00 0.01 0.01 1019.9
20260503034059 0 0.0 0.0 0.00 0.01 0.01 1019.8
20260503033858 0 0.0 0.0 0.00 0.01 0.01 1019.8
20260503033757 0 0.0 0.0 0.00 0.01 0.01 1019.8
20260503032457 0 0.0 0.0 0.00 0.01 0.01 1019.6
20260503032357 0 0.0 0.0 0.00 0.01 0.01 1019.7
20260503032258 0 0.0 0.0 0.00 0.01 0.01 1019.7
20260503032200 0 0.0 0.0 0.00 0.01 0.01 1019.6
20260503032007 0 0.0 0.0 0.00 0.01 0.01 1019.6
20260503031659 0 0.0 0.0 0.00 0.01 0.01 1019.5
20260503031600 0 0.0 0.0 0.00 0.01 0.01 1019.5
20260503031458 0 0.0 0.0 0.00 0.01 0.01 1019.5
20260503031357 0 0.0 0.0 0.00 0.01 0.01 1019.5
20260503031258 0 0.0 0.0 0.00 0.01 0.01 1019.5
20260503031159 0 0.0 0.0 0.00 0.01 0.01 1019.5
20260503031011 0 0.0 0.0 0.00 0.01 0.01 1019.5
20260503030858 0 0.0 0.0 0.00 0.01 0.01 1019.5
20260503030757 0 0.0 0.0 0.00 0.01 0.01 1019.6
20260503030658 0 0.0 0.0 0.00 0.01 0.01 1019.5
20260503030557 0 0.0 0.0 0.00 0.01 0.01 1019.5
20260503030459 0 0.0 0.0 0.00 0.01 0.01 1019.6
20260503030357 0 0.0 0.0 0.00 0.01 0.01 1019.6
20260503030256 0 0.0 0.0 0.00 0.01 0.01 1019.6
20260503030159 0 0.0 0.0 0.00 0.01 0.01 1019.6
20260503030057 0 0.0 0.0 0.00 0.01 0.01 1019.6
20260503025759 0 0.0 0.0 0.00 0.01 0.01 1019.5
20260503025658 0 0.0 0.0 0.00 0.01 0.01 1019.5
20260503025558 0 0.0 0.0 0.00 0.01 0.01 1019.5
20260503025459 0 0.0 0.0 0.00 0.01 0.01 1019.5
20260503025359 0 0.0 0.0 0.00 0.01 0.01 1019.5
20260503025258 0 0.0 0.0 0.00 0.01 0.01 1019.5
20260503025158 0 0.0 0.0 0.00 0.01 0.01 1019.6
20260503025058 0 0.0 0.0 0.00 0.01 0.01 1019.6
20260503025007 0 0.0 0.0 0.00 0.01 0.01 1019.6
20260503024759 0 0.0 0.0 0.00 0.01 0.01 1019.5
20260503024657 0 0.0 0.0 0.00 0.01 0.01 1019.5
20260503024558 0 0.0 0.0 0.00 0.01 0.01 1019.5
20260503024458 0 0.0 0.0 0.00 0.01 0.01 1019.4
20260503024258 0 0.0 0.0 0.00 0.01 0.01 1019.4
20260503024159 0 0.0 0.0 0.00 0.01 0.01 1019.4
20260503024058 0 0.0 0.0 0.00 0.01 0.01 1019.4
20260503024007 0 0.0 0.0 0.00 0.01 0.01 1019.4
20260503023858 0 0.0 0.0 0.00 0.01 0.01 1019.5
20260503023658 0 0.0 0.0 0.00 0.01 0.01 1019.5
20260503023602 0 0.0 0.0 0.00 0.01 0.01 1019.6
20260503023458 0 0.0 0.0 0.00 0.01 0.01 1019.6
20260503023359 0 0.0 0.0 0.00 0.01 0.01 1019.5
20260503023257 0 0.0 0.0 0.00 0.01 0.01 1019.5
20260503023058 0 0.0 0.0 0.00 0.01 0.01 1019.5
20260503023008 0 0.0 0.0 0.00 0.01 0.01 1019.5
20260503022858 0 0.0 0.0 0.00 0.01 0.01 1019.4
20260503022758 0 0.0 0.0 0.00 0.01 0.01 1019.4
20260503022657 0 0.0 0.0 0.00 0.01 0.01 1019.4
20260503022559 0 0.0 0.0 0.00 0.01 0.01 1019.3
20260503022458 0 0.0 0.0 0.00 0.01 0.01 1019.4
20260503022359 0 0.0 0.0 0.00 0.01 0.01 1019.3
20260503022258 0 0.0 0.0 0.00 0.01 0.01 1019.3
20260503022158 0 0.0 0.0 0.00 0.01 0.01 1019.3
20260503022058 0 0.0 0.0 0.00 0.01 0.01 1019.3
20260503022008 0 0.0 0.0 0.00 0.01 0.01 1019.3
20260503021858 0 0.0 0.0 0.00 0.01 0.01 1019.2
20260503021758 0 0.0 0.0 0.00 0.01 0.01 1019.2
20260503021558 0 0.0 0.0 0.00 0.01 0.01 1019.2
20260503021258 0 0.0 0.0 0.00 0.01 0.01 1019.2
20260503021158 0 0.0 0.0 0.00 0.01 0.01 1019.2
20260503021058 0 0.0 0.0 0.00 0.01 0.01 1019.2
20260503020959 0 0.0 0.0 0.00 0.01 0.01 1019.3
20260503020858 0 0.0 0.0 0.00 0.01 0.01 1019.2
20260503020759 0 0.0 0.0 0.00 0.01 0.01 1019.3
20260503020657 0 0.0 0.0 0.00 0.01 0.01 1019.3
20260503020458 0 0.0 0.0 0.00 0.01 0.01 1019.2
20260503020359 0 0.0 0.0 0.00 0.01 0.01 1019.2
20260503020258 0 0.0 0.0 0.00 0.01 0.01 1019.2
20260503020159 0 0.0 0.0 0.00 0.01 0.01 1019.2
20260503015856 0 0.0 0.0 0.00 0.01 0.01 1019.3
20260503015656 0 0.0 0.0 0.00 0.01 0.01 1019.2
20260503015559 0 0.0 0.0 0.00 0.01 0.01 1019.2
20260503015459 0 0.0 0.0 0.00 0.01 0.01 1019.2
20260503015359 0 0.0 0.0 0.00 0.01 0.01 1019.2
20260503015259 0 0.0 0.0 0.00 0.01 0.01 1019.1
20260503015157 0 0.0 0.0 0.00 0.01 0.01 1019.1
20260503015056 0 0.0 0.0 0.00 0.01 0.01 1019.1
20260503014858 0 0.0 0.0 0.00 0.01 0.01 1019.0
20260503014759 0 0.0 0.0 0.00 0.01 0.01 1019.0
20260503014658 0 0.0 0.0 0.00 0.01 0.01 1019.0
20260503014559 0 0.0 0.0 0.00 0.01 0.01 1019.0
20260503014457 0 0.0 0.0 0.00 0.01 0.01 1018.9
20260503014258 0 0.0 0.0 0.00 0.01 0.01 1018.9
20260503014157 0 0.0 0.0 0.00 0.01 0.01 1018.9
20260503014058 0 0.0 0.0 0.00 0.01 0.01 1018.9
20260503014000 0 0.0 0.0 0.00 0.01 0.01 1018.9
20260503013757 0 0.0 0.0 0.00 0.01 0.01 1018.9
20260503013659 0 0.0 0.0 0.00 0.01 0.01 1018.8
20260503013557 0 0.0 0.0 0.00 0.01 0.01 1018.8
20260503013457 0 0.0 0.0 0.00 0.01 0.01 1018.8
20260503013258 0 0.0 0.0 0.00 0.01 0.01 1018.8
20260503013159 0 0.0 0.0 0.00 0.01 0.01 1018.8
20260503013056 0 0.0 0.0 0.00 0.01 0.01 1018.8
20260503012858 0 0.0 0.0 0.00 0.01 0.01 1018.8
20260503012657 0 0.0 0.0 0.00 0.01 0.01 1018.7
20260503012559 0 0.0 0.0 0.00 0.01 0.01 1018.7
20260503012459 0 0.0 0.0 0.00 0.01 0.01 1018.7
20260503012357 0 0.0 0.0 0.00 0.01 0.01 1018.7
20260503012258 0 0.0 0.0 0.00 0.01 0.01 1018.7
20260503012159 0 0.0 0.0 0.00 0.01 0.01 1018.7
20260503012056 0 0.0 0.0 0.00 0.01 0.01 1018.7
20260503012011 0 0.0 0.0 0.00 0.01 0.01 1018.7
20260503011859 0 0.0 0.0 0.00 0.01 0.01 1018.8
20260503011657 0 0.0 0.0 0.00 0.01 0.01 1018.7
20260503011558 0 0.0 0.0 0.00 0.01 0.01 1018.7
20260503011456 0 0.0 0.0 0.00 0.01 0.01 1018.7
20260503011256 0 0.0 0.0 0.00 0.01 0.01 1018.6
20260503011159 0 0.0 0.0 0.00 0.01 0.01 1018.6
20260503011058 0 0.0 0.0 0.00 0.01 0.01 1018.7
20260503011000 0 0.0 0.0 0.00 0.01 0.01 1018.7
20260503010858 0 0.0 0.0 0.00 0.01 0.01 1018.7
20260503010758 0 0.0 0.0 0.00 0.01 0.01 1018.7
20260503010658 0 0.0 0.0 0.00 0.01 0.01 1018.7
20260503010559 0 0.0 0.0 0.00 0.01 0.01 1018.6
20260503010459 0 0.0 0.0 0.00 0.01 0.01 1018.6
20260503010359 0 0.0 0.0 0.00 0.01 0.01 1018.7
20260503010159 0 0.0 0.0 0.00 0.01 0.01 1018.6
20260503010058 0 0.0 0.0 0.00 0.01 0.01 1018.6
20260503010001 0 0.0 0.0 0.00 0.01 0.01 1018.6
20260503005856 0 0.0 0.0 0.00 0.01 0.01 1018.5
20260503005757 0 0.0 0.0 0.00 0.01 0.01 1018.5
20260503005559 0 0.0 0.0 0.00 0.01 0.01 1018.4
20260503005457 0 0.0 0.0 0.00 0.01 0.01 1018.4
20260503005359 0 0.0 0.0 0.00 0.01 0.01 1018.4
20260503005258 0 0.0 0.0 0.00 0.01 0.01 1018.4
20260503005058 0 0.0 0.0 0.00 0.01 0.01 1018.4
20260503005000 0 0.0 0.0 0.00 0.01 0.01 1018.3
20260503004858 0 0.0 0.0 0.00 0.01 0.01 1018.3
20260503004759 0 0.0 0.0 0.00 0.01 0.01 1018.3
20260503004558 0 0.0 0.0 0.00 0.01 0.01 1018.4
20260503004459 0 0.0 0.0 0.00 0.01 0.01 1018.3
20260503004357 0 0.0 0.0 0.00 0.01 0.01 1018.3
20260503004257 0 0.0 0.0 0.00 0.01 0.01 1018.3
20260503004159 0 0.0 0.0 0.00 0.01 0.01 1018.3
20260503004056 0 0.0 0.0 0.00 0.01 0.01 1018.3
20260503003857 0 0.0 0.0 0.00 0.01 0.01 1018.2
20260503003656 0 0.0 0.0 0.00 0.01 0.01 1018.2
20260503003558 0 0.0 0.0 0.00 0.01 0.01 1018.2
20260503003458 0 0.0 0.0 0.00 0.01 0.01 1018.2
20260503003358 0 0.0 0.0 0.00 0.01 0.01 1018.2
20260503003258 0 0.0 0.0 0.00 0.01 0.01 1018.2
20260503003158 0 0.0 0.0 0.00 0.01 0.01 1018.1
20260503003000 0 0.0 0.0 0.00 0.01 0.01 1018.1
20260503002858 0 0.0 0.0 0.00 0.01 0.01 1018.1
20260503002657 0 0.0 0.0 0.00 0.01 0.01 1018.0
20260503002557 0 0.0 0.0 0.00 0.01 0.01 1018.0
20260503002459 0 0.0 0.0 0.00 0.01 0.01 1018.0
20260503002359 0 0.0 0.0 0.00 0.01 0.01 1018.0
20260503002256 0 0.0 0.0 0.00 0.01 0.01 1017.9
20260503002159 0 0.0 0.0 0.00 0.01 0.01 1017.9
20260503002058 0 0.0 0.0 0.00 0.01 0.01 1017.9
20260503002000 0 0.0 0.0 0.00 0.01 0.01 1017.9
20260503001858 0 0.0 0.0 0.00 0.01 0.01 1018.0
20260503001658 0 0.0 0.0 0.00 0.01 0.01 1017.9
20260503001458 0 0.0 0.0 0.00 0.01 0.01 1018.0
20260503001359 0 0.0 0.0 0.00 0.01 0.01 1018.0
20260503001258 0 0.0 0.0 0.00 0.01 0.01 1018.0
20260503001159 0 0.0 0.0 0.00 0.01 0.01 1017.9
20260503001058 0 0.0 0.0 0.00 0.01 0.01 1018.0
20260503000958 0 0.0 0.0 0.00 0.01 0.01 1018.0
20260503000857 0 0.0 0.0 0.00 0.01 0.01 1018.0
20260503000759 0 0.0 0.0 0.00 0.01 0.01 1017.9
20260503000658 0 0.0 0.0 0.00 0.01 0.01 1017.9
20260503000558 0 0.0 0.0 0.00 0.01 0.01 1017.9
20260503000458 0 0.0 0.0 0.00 0.01 0.01 1017.9
20260503000400 0 0.0 0.0 0.00 0.01 0.01 1017.9
20260503000258 0 0.0 0.0 0.00 0.01 0.01 1017.8
20260503000158 0 0.0 0.0 0.00 0.01 0.01 1017.8
20260503000058 0 0.0 0.0 0.00 0.01 0.01 1017.8
20260503000001 0 0.0 0.0 0.00 0.01 0.01 1017.8
20260502235858 0 0.0 0.0 0.00 0.01 0.01 1017.8
20260502235758 0 0.0 0.0 0.00 0.01 0.01 1017.8
20260502235658 0 0.0 0.0 0.00 0.01 0.01 1017.8
20260502235559 0 0.0 0.0 0.00 0.01 0.01 1017.8
20260502235459 0 0.0 0.0 0.00 0.01 0.01 1017.8
20260502235257 0 0.0 0.0 0.00 0.01 0.01 1017.8
20260502235157 0 0.0 0.0 0.00 0.01 0.01 1017.9
20260502235058 0 0.0 0.0 0.00 0.01 0.01 1017.8
20260502234856 0 0.0 0.0 0.00 0.01 0.01 1017.9
20260502234759 0 0.0 0.0 0.00 0.01 0.01 1017.8
20260502234658 0 0.0 0.0 0.00 0.01 0.01 1017.9
20260502234559 0 0.0 0.0 0.00 0.01 0.01 1017.8
20260502234459 0 0.0 0.0 0.00 0.01 0.01 1017.8
20260502234357 0 0.0 0.0 0.00 0.01 0.01 1017.8
20260502234258 0 0.0 0.0 0.00 0.01 0.01 1017.9
20260502234158 0 0.0 0.0 0.00 0.01 0.01 1017.8
20260502234058 0 0.0 0.0 0.00 0.01 0.01 1017.8
20260502233958 0 0.0 0.0 0.00 0.01 0.01 1017.8
20260502233858 0 0.0 0.0 0.00 0.01 0.01 1017.8
20260502233759 0 0.0 0.0 0.00 0.01 0.01 1017.8
20260502233658 0 0.0 0.0 0.00 0.01 0.01 1017.8
20260502233557 0 0.0 0.0 0.00 0.01 0.01 1017.8
20260502233457 0 0.0 0.0 0.00 0.01 0.01 1017.8
20260502233359 0 0.0 0.0 0.00 0.01 0.01 1017.8
20260502233256 0 0.0 0.0 0.00 0.01 0.01 1017.8
20260502233157 0 0.0 0.0 0.00 0.01 0.01 1017.8
20260502233056 0 0.0 0.0 0.00 0.01 0.01 1017.8
20260502232958 0 0.0 0.0 0.00 0.01 0.01 1017.8
20260502232656 0 0.0 0.0 0.00 0.01 0.01 1017.8
20260502232559 0 0.0 0.0 0.00 0.01 0.01 1017.7
20260502232457 0 0.0 0.0 0.00 0.01 0.01 1017.8
20260502232357 0 0.0 0.0 0.00 0.01 0.01 1017.7
20260502232258 0 0.0 0.0 0.00 0.01 0.01 1017.7
20260502232157 0 0.0 0.0 0.00 0.01 0.01 1017.8
20260502231958 0 0.0 0.0 0.00 0.01 0.01 1017.8
20260502231858 0 0.0 0.0 0.00 0.01 0.01 1017.8
20260502231757 0 0.0 0.0 0.00 0.01 0.01 1017.7
20260502231658 0 0.0 0.0 0.00 0.01 0.01 1017.8
20260502231559 0 0.0 0.0 0.00 0.01 0.01 1017.7
20260502231459 0 0.0 0.0 0.00 0.01 0.01 1017.7
20260502231357 0 0.0 0.0 0.00 0.01 0.01 1017.7
20260502231258 0 0.0 0.0 0.00 0.01 0.01 1017.8
20260502231157 0 0.0 0.0 0.00 0.01 0.01 1017.8
20260502231058 0 0.0 0.0 0.00 0.01 0.01 1017.7
20260502230958 0 0.0 0.0 0.00 0.01 0.01 1017.7
20260502230858 0 0.0 0.0 0.00 0.01 0.01 1017.7
20260502230757 0 0.0 0.0 0.00 0.01 0.01 1017.6
20260502230656 0 0.0 0.0 0.00 0.01 0.01 1017.7
20260502230557 0 0.0 0.0 0.00 0.01 0.01 1017.7
20260502230457 0 0.0 0.0 0.00 0.01 0.01 1017.7
20260502230258 0 0.0 0.0 0.00 0.01 0.01 1017.6
20260502230159 0 0.0 0.0 0.00 0.01 0.01 1017.6
20260502230057 0 0.0 0.0 0.00 0.01 0.01 1017.6
20260502225958 0 0.0 0.0 0.00 0.01 0.01 1017.6
20260502225757 0 0.0 0.0 0.00 0.01 0.01 1017.6
20260502225658 0 0.0 0.0 0.00 0.01 0.01 1017.6
20260502225557 0 0.0 0.0 0.00 0.01 0.01 1017.6
20260502225459 0 0.0 0.0 0.00 0.01 0.01 1017.6
20260502225258 0 0.0 0.0 0.00 0.01 0.01 1017.6
20260502225157 0 0.0 0.0 0.00 0.01 0.01 1017.6
20260502225058 0 0.0 0.0 0.00 0.01 0.01 1017.6
20260502225000 0 0.0 0.0 0.00 0.01 0.01 1017.6
20260502224858 0 0.0 0.0 0.00 0.01 0.01 1017.6
20260502224800 0 0.0 0.0 0.00 0.01 0.01 1017.6
20260502224659 0 0.0 0.0 0.00 0.01 0.01 1017.6
20260502224557 0 0.0 0.0 0.00 0.01 0.01 1017.6
20260502224258 0 0.0 0.0 0.00 0.01 0.01 1017.6
20260502224158 0 0.0 0.0 0.00 0.01 0.01 1017.6
20260502224058 0 0.0 0.0 0.00 0.01 0.01 1017.5
20260502223958 0 0.0 0.0 0.00 0.01 0.01 1017.5
20260502223858 0 0.0 0.0 0.00 0.01 0.01 1017.5
20260502223759 0 0.0 0.0 0.00 0.01 0.01 1017.6
20260502223656 0 0.0 0.0 0.00 0.01 0.01 1017.5
20260502223457 0 0.0 0.0 0.00 0.01 0.01 1017.5
20260502223359 0 0.0 0.0 0.00 0.01 0.01 1017.5
20260502223256 0 0.0 0.0 0.00 0.01 0.01 1017.6
20260502223159 0 0.0 0.0 0.00 0.01 0.01 1017.6
20260502223056 0 0.0 0.0 0.00 0.01 0.01 1017.6
20260502222958 0 0.0 0.0 0.00 0.01 0.01 1017.7
20260502222858 0 0.0 0.0 0.00 0.01 0.01 1017.7
20260502222757 0 0.0 0.0 0.00 0.01 0.01 1017.7
20260502222656 0 0.0 0.0 0.00 0.01 0.01 1017.7
20260502222456 0 0.0 0.0 0.00 0.01 0.01 1017.6
20260502222359 0 0.0 0.0 0.00 0.01 0.01 1017.6
20260502222256 0 0.0 0.0 0.00 0.01 0.01 1017.6
20260502222159 0 0.0 0.0 0.00 0.01 0.01 1017.6
20260502222057 0 0.0 0.0 0.00 0.01 0.01 1017.6
20260502221958 0 0.0 0.0 0.00 0.01 0.01 1017.7
20260502221858 0 0.0 0.0 0.00 0.01 0.01 1017.6
20260502221757 0 0.0 0.0 0.00 0.01 0.01 1017.7
20260502221657 0 0.0 0.0 0.00 0.01 0.01 1017.7
20260502221559 0 0.0 0.0 0.00 0.01 0.01 1017.7
20260502221457 0 0.0 0.0 0.00 0.01 0.01 1017.8
20260502221359 0 0.0 0.0 0.00 0.01 0.01 1017.8
20260502221256 0 0.0 0.0 0.00 0.01 0.01 1017.8
20260502221159 0 0.0 0.0 0.00 0.01 0.01 1017.8
20260502221057 0 0.0 0.0 0.00 0.01 0.01 1017.7
20260502220959 0 0.0 0.0 0.00 0.01 0.01 1017.8
20260502220857 0 0.0 0.0 0.00 0.01 0.01 1017.8
20260502220757 0 0.0 0.0 0.00 0.01 0.01 1017.7
20260502220557 0 0.0 0.0 0.00 0.01 0.01 1017.8
20260502220458 0 0.0 0.0 0.00 0.01 0.01 1017.8
20260502220357 0 0.0 0.0 0.00 0.01 0.01 1017.8
20260502220257 0 0.0 0.0 0.00 0.01 0.01 1017.8
20260502220056 0 0.0 0.0 0.00 0.01 0.01 1017.8
20260502220000 0 0.0 0.0 0.00 0.01 0.01 1017.8
20260502215857 0 0.0 0.0 0.00 0.01 0.01 1017.7
20260502215757 0 0.0 0.0 0.00 0.01 0.01 1017.8
20260502215657 0 0.0 0.0 0.00 0.01 0.01 1017.8
20260502215557 0 0.0 0.0 0.00 0.01 0.01 1017.7
20260502215457 0 0.0 0.0 0.00 0.01 0.01 1017.7
20260502215357 0 0.0 0.0 0.00 0.01 0.01 1017.7
20260502215158 0 0.0 0.0 0.00 0.01 0.01 1017.7
20260502215056 0 0.0 0.0 0.00 0.01 0.01 1017.8
20260502215000 0 0.0 0.0 0.00 0.01 0.01 1017.8
20260502214858 0 0.0 0.0 0.00 0.01 0.01 1017.9
20260502214757 0 0.0 0.0 0.00 0.01 0.01 1017.9
20260502214658 0 0.0 0.0 0.00 0.01 0.01 1017.9
20260502214559 0 0.0 0.0 0.00 0.01 0.01 1017.9
20260502214359 0 0.0 0.0 0.00 0.01 0.01 1017.9
20260502214256 0 0.0 0.0 0.00 0.01 0.01 1017.9
20260502214058 0 0.0 0.0 0.00 0.01 0.01 1017.9
20260502213958 0 0.0 0.0 0.00 0.01 0.01 1017.9
20260502213858 0 0.0 0.0 0.00 0.01 0.01 1018.0
20260502213757 0 0.0 0.0 0.00 0.01 0.01 1017.9
20260502213657 0 0.0 0.0 0.00 0.01 0.01 1017.9
20260502213557 0 0.0 0.0 0.00 0.01 0.01 1017.9
20260502213458 0 0.0 0.0 0.00 0.01 0.01 1017.9
20260502213359 0 0.0 0.0 0.00 0.01 0.01 1017.9
20260502213256 0 0.0 0.0 0.00 0.01 0.01 1017.9
20260502213058 0 0.0 0.0 0.00 0.01 0.01 1017.9
20260502212958 0 0.0 0.0 0.00 0.01 0.01 1017.9